Regional Weather Roundup
Issued by NWS Green Bay, WI

Home | Current Version | Previous Version | Graphics & Text | Print | Product List | Glossary Off
Versions: 1 2 3 4 5 6 7 8 9 10 11 12 13 14 15 16 17 18 19 20 21 22 23 24 25 26 27 28 29 30 31 32 33 34 35 36 37 38 39 40 41 42 43 44 45 46 47 48 49 50

000
ASUS43 KGRB 221059
RWRGRB

NORTH-CENTRAL AND NORTHEAST WISCONSIN REGIONAL WEATHER ROUNDUP
NATIONAL WEATHER SERVICE GREEN BAY WI
600 AM CDT WED OCT 22 2014

WIZ005-009-010>012-018-019-221200-
NORTH CENTRAL WISCONSIN

CITY           SKY/WX    TMP DP  RH WIND       PRES   REMARKS
IRONWOOD       CLEAR     37  32  81 S7        30.25R
MANITOWISH WTR NOT AVBL
ARBOR VITAE    NOT AVBL
EAGLE RIVER    NOT AVBL
LAND O LAKES   NOT AVBL
RHINELANDER    CLEAR     27  26  96 CALM      30.32R
PHILLIPS       NOT AVBL
ANTIGO         NOT AVBL
TOMAHAWK       NOT AVBL
MERRILL        NOT AVBL
$$

WIZ013-073-221200-
NORTHEAST WISCONSIN

CITY           SKY/WX    TMP DP  RH WIND       PRES   REMARKS
IRON MOUNTAIN  FOG       26  25  96 CALM      30.33S VSB 1/2
MARINETTE      PTCLDY    28  27  93 CALM      30.35R
$$

WIZ017-030-035>037-045-221200-
CENTRAL WISCONSIN

CITY           SKY/WX    TMP DP  RH WIND       PRES   REMARKS
MEDFORD        NOT AVBL
WAUSAU         PTCLDY    30  28  92 E6        30.32R
MOSINEE        CLEAR     28  28 100 E3        30.33R
MARSHFIELD     PTCLDY    32  29  88 CALM      30.32R
WISC RAPIDS    CLEAR     28  26  92 CALM      30.34R
STEVENS POINT  NOT AVBL
WAUPACA        NOT AVBL
SHAWANO        NOT AVBL
CLINTONVILLE   NOT AVBL
$$

WIZ038-039-048-051-221200-
FOX VALLEY

CITY           SKY/WX    TMP DP  RH WIND       PRES   REMARKS
NWS GREEN BAY  CLOUDY    32  31  96 CALM      30.35R FOG
APPLETON       CLEAR     32  30  93 VRB5      30.34R
OSHKOSH        PTCLDY    31  29  92 CALM      30.33R
FOND DU LAC    PTCLDY    28  26  92 CALM      30.34R
$$

WIZ022-050-052-221200-
EAST CENTRAL WISCONSIN

CITY           SKY/WX    TMP DP  RH WIND       PRES   REMARKS
STURGEON BAY   PTCLDY    34  28  80 E3        30.35S
MANITOWOC      NOT AVBL
SHEBOYGAN      PTCLDY    29  26  89 NE3       30.33S
$$

LMZ563-521-522-541>543-221200-
LAKESHORE

STATION/POSITION TIME  TEMP    WIND        PRES    VSBY  WAVE
                       AIR SEA DIR/SP/G                  HT/PER
                 (UTC) (F)     (DEG/KT/KT) (MB)    (MI)  (FT/S)
SHEBOYGAN LKSHOR 1000   46 49  120/  8/  9 1027.5R
KEWAUNEE LKSHORE 1000   32     300/  3/  4 1026.5R
NORTHPORT PIER   1000   42     160/  5/  8 1027.8R
N MID LAKE BUOY  1000   44 51  150/  6/ 10 1028.3R         1/ 3
SISTER BAY LKSHO 1000          140/  4/  5   N/A
CHAMBERS ISLAND  1000   39      CALM  /  3 1027.4R
MENOMINEE LKSHOR 1000   34     340/  3/  4 1028.1R
$$



USA.gov is the U.S. government's official web portal to all federal, state and local government web resources and services.